CW4038 Weather Reports


Display with metric or nautical units.
time (UTC)temp
F
wind
direction
speed
MPH
gust
MPH
rain 1hr
in
rain 24hr
in
rain mn
in
humidity
%
barometer
mb
20180522175037 81 115 1.0 4.0 0.00 0.00 0.00 37 1010.4
20180522174136 80 260 1.0 3.0 0.00 0.00 0.00 37 1010.3
20180522173235 78 162 2.0 6.0 0.00 0.00 0.00 39 1010.7
20180522172334 79 305 1.0 6.0 0.00 0.00 0.00 38 1010.7
20180522171434 79 270 2.0 6.0 0.00 0.00 0.00 38 1010.7
20180522170533 79 199 2.0 5.0 0.00 0.00 0.00 39 1010.7
20180522165632 78 164 2.0 5.0 0.00 0.00 0.00 39 1010.7
20180522164731 78 212 2.0 5.0 0.00 0.00 0.00 40 1011.0
20180522163830 77 171 2.0 4.0 0.00 0.00 0.00 40 1011.0
20180522162929 77 282 1.0 3.0 0.00 0.00 0.00 41 1011.0
20180522162028 77 212 2.0 3.0 0.00 0.00 0.00 40 1011.0
20180522161127 76 253 1.0 4.0 0.00 0.00 0.00 41 1011.0
20180522160227 76 171 1.0 4.0 0.00 0.00 0.00 41 1011.0
20180522155326 76 136 1.0 3.0 0.00 0.00 0.00 42 1011.0
20180522154425 75 135 1.0 4.0 0.00 0.00 0.00 43 1011.0
20180522153524 74 187 1.0 4.0 0.00 0.00 0.00 45 1011.0
20180522152623 73 109 1.0 4.0 0.00 0.00 0.00 46 1011.0
20180522151722 72 148 2.0 4.0 0.00 0.00 0.00 46 1011.0
20180522150821 71 111 2.0 3.0 0.00 0.00 0.00 49 1011.0
20180522145920 71 79 1.0 3.0 0.00 0.00 0.00 51 1011.0
20180522145019 71 88 1.0 2.0 0.00 0.00 0.00 51 1011.3
20180522144117 69 110 1.0 2.0 0.00 0.00 0.00 52 1011.0
20180522143217 68 63 0.0 1.0 0.00 0.00 0.00 56 1011.3
20180522142315 67 60 1.0 2.0 0.00 0.00 0.00 57 1010.9
20180522141414 64 66 0.0 2.0 0.00 0.00 0.00 60 1010.9
20180522140513 62 89 1.0 2.0 0.00 0.00 0.00 64 1010.9
20180522135612 61 94 0.0 2.0 0.00 0.00 0.00 66 1010.9
20180522134711 60 161 1.0 2.0 0.00 0.00 0.00 70 1010.9
20180522133810 59 145 1.0 2.0 0.00 0.00 0.00 73 1010.6
20180522132909 58 75 0.0 1.0 0.00 0.00 0.00 76 1010.6
20180522132008 58 75 0.0 1.0 0.00 0.00 0.00 74 1010.6
20180522131107 58 75 0.0 1.0 0.00 0.00 0.00 75 1010.6
20180522130207 58 73 0.0 1.0 0.00 0.00 0.00 74 1010.2
20180522125305 58 74 0.0 1.0 0.00 0.00 0.00 75 1010.2
20180522124404 57 74 0.0 0.0 0.00 0.00 0.00 79 1010.2
20180522123503 56 73 0.0 0.0 0.00 0.00 0.00 77 1010.2
20180522122602 57 74 0.0 0.0 0.00 0.00 0.00 75 1010.2
20180522121701 58 74 0.0 0.0 0.00 0.00 0.00 74 1009.9
20180522120759 58 74 0.0 0.0 0.00 0.00 0.00 74 1009.9
20180522115859 58 74 0.0 0.0 0.00 0.00 0.00 74 1009.9
20180522114957 58 73 0.0 0.0 0.00 0.00 0.00 74 1009.9
20180522114057 58 74 0.0 0.0 0.00 0.00 0.00 74 1009.9
20180522113155 58 74 0.0 0.0 0.00 0.00 0.00 74 1009.9
20180522112254 58 73 0.0 0.0 0.00 0.00 0.00 72 1009.9
20180522111354 58 73 0.0 0.0 0.00 0.00 0.00 72 1009.5
20180522110452 58 74 0.0 0.0 0.00 0.00 0.00 71 1009.6
20180522105552 59 74 0.0 0.0 0.00 0.00 0.00 70 1009.5
20180522104650 59 73 0.0 0.0 0.00 0.00 0.00 71 1009.6
20180522103750 59 74 0.0 0.0 0.00 0.00 0.00 70 1009.5
20180522102848 59 73 0.0 0.0 0.00 0.00 0.00 70 1009.6
20180522101948 59 74 0.0 0.0 0.00 0.00 0.00 68 1009.2
20180522101047 60 73 0.0 0.0 0.00 0.00 0.00 67 1009.2
20180522100146 60 74 0.0 0.0 0.00 0.00 0.00 66 1009.2
20180522095245 61 74 0.0 1.0 0.00 0.00 0.00 66 1009.2
20180522094344 60 74 0.0 1.0 0.00 0.00 0.00 67 1008.9
20180522093443 60 74 0.0 0.0 0.00 0.00 0.00 67 1008.9
20180522092542 60 73 0.0 0.0 0.00 0.00 0.00 66 1009.2
20180522091641 61 73 0.0 0.0 0.00 0.00 0.00 65 1009.2
20180522090739 61 73 0.0 1.0 0.00 0.00 0.00 65 1009.2
20180522085839 61 73 0.0 1.0 0.00 0.00 0.00 65 1009.2
20180522084937 61 20 0.0 0.0 0.00 0.00 0.00 65 1009.2
20180522084036 61 20 0.0 1.0 0.00 0.00 0.00 64 1009.5
20180522083135 61 20 0.0 1.0 0.00 0.00 0.00 65 1009.5
20180522082234 61 20 0.0 0.0 0.00 0.00 0.00 65 1009.2
20180522081333 61 20 0.0 0.0 0.00 0.00 0.00 63 1009.2
20180522080433 62 20 0.0 1.0 0.00 0.00 0.00 63 1009.5
20180522075532 62 20 0.0 1.0 0.00 0.00 0.00 63 1009.5
20180522074630 62 20 1.0 1.0 0.00 0.00 0.00 63 1009.5
20180522073729 62 20 0.0 1.0 0.00 0.00 0.00 63 1009.5
20180522072828 62 16 1.0 1.0 0.00 0.00 0.00 63 1009.5
20180522071927 62 82 0.0 0.0 0.00 0.00 0.00 63 1009.5
20180522071026 63 84 0.0 0.0 0.00 0.00 0.00 61 1009.5
20180522070125 64 84 0.0 1.0 0.00 0.00 0.00 59 1009.5
20180522065225 64 84 0.0 2.0 0.00 0.00 0.00 58 1009.5
20180522064323 65 13 1.0 2.0 0.00 0.00 0.00 58 1009.5
20180522063422 65 323 0.0 1.0 0.00 0.00 0.00 57 1009.5
20180522062521 66 338 1.0 3.0 0.00 0.00 0.00 56 1009.5
20180522061619 66 312 1.0 3.0 0.00 0.00 0.00 56 1009.5
20180522060719 66 296 1.0 2.0 0.00 0.00 0.00 55 1009.5
20180522055818 67 297 1.0 3.0 0.00 0.00 0.00 54 1009.5
20180522054917 67 335 1.0 4.0 0.00 0.00 0.00 53 1009.5
20180522054016 68 323 2.0 4.0 0.00 0.00 0.00 52 1009.5
20180522053115 68 323 1.0 2.0 0.00 0.00 0.00 52 1009.5
20180522052213 69 335 2.0 3.0 0.00 0.00 0.00 51 1009.5
20180522051313 69 10 1.0 4.0 0.00 0.00 0.00 51 1009.2
20180522050412 70 291 1.0 5.0 0.00 0.00 0.00 50 1009.1
20180522045511 70 321 2.0 5.0 0.00 0.00 0.00 50 1008.8
20180522044610 68 308 2.0 5.0 0.00 0.00 0.00 50 1008.8
20180522043709 68 324 0.0 0.0 0.00 0.00 0.00 51 1008.8
20180522042808 69 324 0.0 0.0 0.00 0.00 0.00 50 1008.8
20180522041907 69 324 0.0 0.0 0.00 0.00 0.00 48 1008.4
20180522041006 69 324 0.0 0.0 0.00 0.00 0.00 47 1008.4
20180522040105 70 324 0.0 0.0 0.00 0.00 0.00 46 1008.4
20180522035204 70 324 0.0 0.0 0.00 0.00 0.00 45 1008.4
20180522034303 71 324 0.0 0.0 0.00 0.00 0.00 45 1008.1
20180522033401 72 324 0.0 0.0 0.00 0.00 0.00 44 1008.1
20180522032500 73 324 0.0 0.0 0.00 0.00 0.00 43 1008.1
20180522031600 73 325 0.0 2.0 0.00 0.00 0.00 43 1008.1
20180522030659 74 325 0.0 2.0 0.00 0.00 0.00 43 1008.1
20180522025758 74 302 1.0 3.0 0.00 0.00 0.00 42 1008.1
20180522024856 75 340 1.0 3.0 0.00 0.00 0.00 40 1008.1
20180522023956 75 341 1.0 3.0 0.00 0.00 0.00 40 1007.8
20180522023054 76 293 2.0 3.0 0.00 0.00 0.00 39 1007.8
20180522022154 76 344 1.0 5.0 0.00 0.00 0.00 39 1007.8
20180522021253 76 331 1.0 5.0 0.00 0.00 0.00 39 1007.8
20180522020352 77 322 2.0 4.0 0.00 0.00 0.00 37 1007.8
20180522015451 78 324 2.0 4.0 0.00 0.00 0.00 37 1007.8
20180522014550 79 328 2.0 4.0 0.00 0.00 0.00 36 1007.8
20180522013649 81 309 2.0 4.0 0.00 0.00 0.00 34 1007.8
20180522012748 81 328 0.0 4.0 0.00 0.00 0.00 35 1007.8
20180522011847 82 328 2.0 4.0 0.00 0.00 0.00 34 1007.8
20180522010946 81 22 1.0 5.0 0.00 0.00 0.00 35 1007.5
20180522010045 81 321 2.0 5.0 0.00 0.00 0.00 34 1007.5
20180522005144 81 320 2.0 4.0 0.00 0.00 0.00 35 1007.8
20180522004244 81 316 2.0 6.0 0.00 0.00 0.00 36 1007.8
20180522003343 82 261 1.0 6.0 0.00 0.00 0.00 35 1007.8
20180522002442 81 313 1.0 5.0 0.00 0.00 0.00 35 1007.8
20180522001541 81 323 2.0 5.0 0.00 0.00 0.00 36 1007.8
20180522000640 81 312 1.0 7.0 0.00 0.00 0.00 35 1007.8
20180521235740 81 323 2.0 7.0 0.00 0.00 0.00 35 1007.8
20180521234838 80 347 1.0 6.0 0.00 0.00 0.00 36 1007.8
20180521233938 81 353 2.0 6.0 0.00 0.00 0.00 36 1007.8
20180521233036 80 293 2.0 9.0 0.00 0.00 0.00 36 1007.8
20180521232135 81 319 2.0 9.0 0.00 0.00 0.00 36 1007.9
20180521231234 81 300 2.0 6.0 0.00 0.00 0.00 35 1007.9
20180521230334 80 330 1.0 7.0 0.00 0.00 0.00 38 1007.9
20180521225433 80 325 2.0 7.0 0.00 0.00 0.00 36 1008.2
20180521224531 80 307 1.0 6.0 0.00 0.00 0.00 35 1008.2
20180521223630 80 331 2.0 6.0 0.00 0.00 0.00 36 1008.5
20180521222729 79 347 1.0 6.0 0.00 0.00 0.00 37 1008.5
20180521221828 78 326 2.0 6.0 0.00 0.00 0.00 38 1008.5
20180521220928 79 326 2.0 5.0 0.00 0.00 0.00 39 1008.5
20180521220027 79 335 2.0 5.0 0.00 0.00 0.00 38 1008.5
20180521215126 79 339 2.0 6.0 0.00 0.00 0.00 40 1008.9
20180521214225 79 327 3.0 6.0 0.00 0.00 0.00 40 1008.9
20180521213324 78 26 2.0 6.0 0.00 0.00 0.00 38 1008.9
20180521212423 78 322 1.0 6.0 0.00 0.00 0.00 41 1008.9
20180521211522 77 0 1.0 4.0 0.00 0.00 0.00 40 1009.2
20180521210621 77 339 2.0 6.0 0.00 0.00 0.00 40 1009.2
20180521205720 76 257 2.0 6.0 0.00 0.00 0.00 42 1009.2
20180521204819 76 304 3.0 7.0 0.00 0.00 0.00 41 1009.5
20180521203918 76 319 2.0 7.0 0.00 0.00 0.00 43 1009.6
20180521203017 77 337 2.0 5.0 0.00 0.00 0.00 41 1009.6
20180521202116 76 321 2.0 8.0 0.00 0.00 0.00 43 1009.9
20180521201216 76 55 2.0 9.0 0.00 0.00 0.00 41 1009.9
20180521200315 76 4 2.0 5.0 0.00 0.00 0.00 42 1009.9
20180521195414 75 8 1.0 4.0 0.00 0.00 0.00 43 1009.9
20180521194513 75 324 1.0 5.0 0.00 0.00 0.00 42 1010.2
20180521193612 74 64 1.0 6.0 0.00 0.00 0.00 44 1010.2
20180521192711 74 327 2.0 6.0 0.00 0.00 0.00 43 1010.2
20180521191810 73 42 2.0 7.0 0.00 0.00 0.00 42 1010.5
20180521190909 73 343 2.0 7.0 0.00 0.00 0.00 45 1010.6
20180521190009 72 349 2.0 5.0 0.00 0.00 0.00 45 1010.5
20180521185108 72 317 2.0 5.0 0.00 0.00 0.00 45 1010.5
20180521184207 71 20 2.0 6.0 0.00 0.00 0.00 47 1010.5
20180521183306 71 286 2.0 6.0 0.00 0.00 0.00 48 1010.5
20180521182405 70 37 1.0 4.0 0.00 0.00 0.00 48 1010.9
20180521181504 69 359 1.0 5.0 0.00 0.00 0.00 51 1010.9
20180521180603 69 319 2.0 5.0 0.00 0.00 0.00 50 1010.9